Olean, NY

10:30 PM EDT on May 20, 2018 (GMT -0400)
Cattaraugus County-Olean

Weather History for KOLE - October, 2013

Change the Weather History Date:

Thursday, October 31, 2013

  Actual Average (KBFD) Record (KBFD)
Temperature  
Mean Temperature 52 °F -  
Max Temperature 60 °F 52 °F 72 °F (1971)
Min Temperature 44 °F 33 °F 12 °F (1975)
Degree Days  
Heating Degree Days 13    
Growing Degree Days 2 (Base 50)    
Moisture  
Dew Point 50 °F    
Average Humidity 90    
Maximum Humidity 100    
Minimum Humidity 62    
Precipitation  
Precipitation 0.00 in - - ()
Sea Level Pressure  
Sea Level Pressure 29.84 in    
Wind  
Wind Speed 9 mph (SSW)    
Max Wind Speed 21 mph    
Max Gust Speed 29 mph    
Visibility 8 miles    
Events Fog , Rain    
Averages and records for this station are not official NWS values.
T = Trace of Precipitation, MM = Missing Value Source: NWS Daily Summary

Daily Weather History Graph

Daily Weather History Graph

Search for Another Location

Airport or City:

Astronomy

Oct. 31, 2013 Rise Set
Actual Time 7:45 AM EDT 6:07 PM EDT
Civil Twilight 7:16 AM EDT 6:37 PM EDT
Nautical Twilight 6:43 AM EDT 7:10 PM EDT
Astronomical Twilight 6:10 AM EDT 7:42 PM EDT
Moon 4:29 AM EDT (10/31) 4:27 PM EDT (10/31)
Length of Visible Light 11h 20m
Length of Day
10h 22m
Waning Crescent, 10% of the Moon is Illuminated
Oct 31
Waning Crescent
Nov 3
New
Nov 10
First Quarter
Nov 17
Full
Nov 25
Last Quarter

Hourly Weather History & Observations

Time (EDT) Temp. Windchill Dew Point Humidity Pressure Visibility Wind Dir Wind Speed Gust Speed Precip Events Conditions
12:15 AM 44.6 °F 41.4 °F 33.8 °F 66% 30.10 in 10.0 mi SSW 5.8 mph - N/A   Clear
12:35 AM 46.4 °F 43.5 °F 33.8 °F 62% 30.09 in 10.0 mi SSW 5.8 mph - N/A   Clear
12:55 AM 46.4 °F 44.3 °F 35.6 °F 66% 30.09 in 10.0 mi SW 4.6 mph - N/A   Clear
1:15 AM 46.4 °F - 35.6 °F 66% 30.08 in 10.0 mi Calm Calm - N/A   Clear
1:35 AM 44.6 °F - 37.4 °F 76% 30.08 in 10.0 mi Calm Calm - N/A   Clear
1:55 AM 44.6 °F 42.2 °F 37.4 °F 76% 30.08 in 10.0 mi SSW 4.6 mph - N/A   Scattered Clouds
2:15 AM 44.6 °F 40.7 °F 39.2 °F 81% 30.07 in 10.0 mi South 6.9 mph - N/A   Mostly Cloudy
2:35 AM 44.6 °F 41.4 °F 41.0 °F 87% 30.05 in 10.0 mi South 5.8 mph - N/A   Scattered Clouds
2:55 AM 44.6 °F 40.7 °F 41.0 °F 87% 30.04 in 10.0 mi South 6.9 mph - N/A   Clear
3:15 AM 46.4 °F 41.5 °F 42.8 °F 87% 30.02 in 10.0 mi South 10.4 mph - N/A   Scattered Clouds
3:35 AM 46.4 °F 41.1 °F 44.6 °F 93% 30.01 in 10.0 mi South 11.5 mph 17.3 mph N/A   Overcast
3:55 AM 46.4 °F 41.5 °F 44.6 °F 93% 30.00 in 10.0 mi South 10.4 mph - N/A   Overcast
4:15 AM 48.2 °F - 44.6 °F 87% 30.00 in 10.0 mi SSW 9.2 mph - N/A   Overcast
4:35 AM 46.4 °F 42.4 °F 44.6 °F 93% 30.00 in 10.0 mi SSW 8.1 mph - N/A   Overcast
4:55 AM 48.2 °F - 46.4 °F 93% 29.99 in 10.0 mi South 10.4 mph - N/A   Overcast
5:15 AM 50.0 °F - 46.4 °F 87% 29.97 in 10.0 mi South 10.4 mph 18.4 mph N/A   Overcast
5:35 AM 50.0 °F - 46.4 °F 87% 29.97 in 10.0 mi South 8.1 mph - N/A   Overcast
5:55 AM 50.0 °F - 48.2 °F 94% 29.96 in 10.0 mi South 9.2 mph 17.3 mph N/A   Overcast
6:15 AM 50.0 °F - 46.4 °F 87% 29.96 in 10.0 mi SSW 9.2 mph - N/A   Overcast
6:35 AM 50.0 °F - 48.2 °F 94% 29.96 in 7.0 mi SSW 9.2 mph - N/A Rain Light Rain
6:55 AM 50.0 °F - 50.0 °F 100% 29.96 in 5.0 mi SSW 8.1 mph - N/A Rain Rain
7:15 AM 50.0 °F - 50.0 °F 100% 29.95 in 2.0 mi South 11.5 mph 18.4 mph N/A Rain Rain
7:35 AM 50.0 °F - 50.0 °F 100% 29.96 in 3.0 mi SSW 6.9 mph 17.3 mph N/A Rain Light Rain
7:55 AM 50.0 °F - 50.0 °F 100% 29.96 in 0.5 mi South 9.2 mph - N/A   Light Drizzle
8:15 AM 50.0 °F - 50.0 °F 100% 29.94 in 2.5 mi South 8.1 mph - N/A Rain Light Rain
8:35 AM 50.0 °F - 50.0 °F 100% 29.94 in 1.2 mi SSW 6.9 mph - N/A   Drizzle
8:55 AM 50.0 °F - 50.0 °F 100% 29.95 in 0.8 mi SSW 8.1 mph - N/A   Drizzle
9:15 AM 51.8 °F - 51.8 °F 100% 29.94 in 0.5 mi SSW 8.1 mph - N/A Rain Rain
9:35 AM 51.8 °F - 51.8 °F 100% 29.94 in 0.2 mi SSW 8.1 mph - N/A Rain Light Rain
9:55 AM 51.8 °F - 51.8 °F 100% 29.92 in 0.2 mi SSW 6.9 mph - N/A   Light Drizzle
10:15 AM 51.8 °F - 51.8 °F 100% 29.92 in 0.2 mi SSW 6.9 mph - N/A Fog Fog
10:35 AM 53.6 °F - 53.6 °F 100% 29.91 in 3.0 mi SSW 9.2 mph - N/A   Light Drizzle
10:55 AM 53.6 °F - 53.6 °F 100% 29.90 in 4.0 mi SSW 8.1 mph - N/A   Overcast
11:15 AM 55.4 °F - 55.4 °F 100% 29.89 in 5.0 mi SSW 9.2 mph - N/A Rain Light Rain
11:35 AM 57.2 °F - 55.4 °F 94% 29.88 in 7.0 mi SSW 10.4 mph 16.1 mph N/A   Overcast
11:55 AM 59.0 °F - 55.4 °F 88% 29.87 in 10.0 mi SSW 8.1 mph - N/A   Overcast
12:15 PM 59.0 °F - 55.4 °F 88% 29.85 in 10.0 mi SW 10.4 mph 18.4 mph N/A   Overcast
12:35 PM 59.0 °F - 55.4 °F 88% 29.85 in 10.0 mi SW 11.5 mph 17.3 mph N/A   Overcast
12:55 PM 60.8 °F - 55.4 °F 82% 29.84 in 10.0 mi SSW 17.3 mph 24.2 mph N/A   Overcast
1:15 PM 60.8 °F - 55.4 °F 82% 29.82 in 10.0 mi SSW 11.5 mph 23.0 mph N/A   Mostly Cloudy
1:35 PM 60.8 °F - 53.6 °F 77% 29.81 in 10.0 mi SW 10.4 mph 17.3 mph N/A   Overcast
1:55 PM 60.8 °F - 53.6 °F 77% 29.80 in 10.0 mi SW 12.7 mph 19.6 mph N/A   Overcast
2:15 PM 60.8 °F - 53.6 °F 77% 29.80 in 10.0 mi SW 10.4 mph 20.7 mph N/A   Overcast
2:35 PM 60.8 °F - 53.6 °F 77% 29.79 in 10.0 mi SW 8.1 mph 17.3 mph N/A   Overcast
2:55 PM 60.8 °F - 53.6 °F 77% 29.79 in 10.0 mi SW 8.1 mph 16.1 mph N/A Rain Rain
3:15 PM 59.0 °F - 53.6 °F 82% 29.79 in 10.0 mi SW 6.9 mph 18.4 mph N/A   Light Drizzle
3:35 PM 59.0 °F - 53.6 °F 82% 29.79 in 10.0 mi SW 6.9 mph 21.9 mph N/A Rain Rain
3:55 PM 59.0 °F - 53.6 °F 82% 29.78 in 10.0 mi SW 12.7 mph 18.4 mph N/A Rain Rain
4:15 PM 59.0 °F - 53.6 °F 82% 29.77 in 10.0 mi SSW 9.2 mph - N/A   Overcast
4:35 PM 59.0 °F - 53.6 °F 82% 29.75 in 10.0 mi SSW 11.5 mph - N/A Rain Light Rain
4:55 PM 59.0 °F - 53.6 °F 82% 29.75 in 10.0 mi SSW 10.4 mph 17.3 mph N/A Rain Light Rain
5:15 PM 59.0 °F - 53.6 °F 82% 29.75 in 10.0 mi SSW 10.4 mph 20.7 mph N/A Rain Rain
5:35 PM 57.2 °F - 53.6 °F 88% 29.74 in 10.0 mi SSW 10.4 mph 19.6 mph N/A Rain Light Rain
5:55 PM 55.4 °F - 53.6 °F 94% 29.72 in 10.0 mi SSW 8.1 mph - N/A Rain Rain
6:15 PM 55.4 °F - 53.6 °F 94% 29.70 in 10.0 mi SSW 9.2 mph 16.1 mph N/A   Drizzle
6:35 PM 55.4 °F - 53.6 °F 94% 29.69 in 10.0 mi SSW 12.7 mph 21.9 mph N/A   Drizzle
6:55 PM 55.4 °F - 53.6 °F 94% 29.68 in 10.0 mi SSW 15.0 mph 24.2 mph N/A   Overcast
7:15 PM 55.4 °F - 51.8 °F 88% 29.68 in 10.0 mi SSW 12.7 mph 23.0 mph N/A   Drizzle
7:35 PM 55.4 °F - 53.6 °F 94% 29.66 in 7.0 mi SSW 13.8 mph 24.2 mph N/A Rain Light Rain
7:55 PM 55.4 °F - 53.6 °F 94% 29.64 in 7.0 mi SSW 20.7 mph 28.8 mph N/A Rain Rain
8:15 PM 53.6 °F - 53.6 °F 100% 29.63 in 7.0 mi SSW 12.7 mph 24.2 mph N/A Rain Rain
8:35 PM 53.6 °F - 53.6 °F 100% 29.61 in 7.0 mi SSW 16.1 mph 25.3 mph N/A Rain Light Rain
8:55 PM 53.6 °F - 53.6 °F 100% 29.59 in 7.0 mi SSW 17.3 mph 24.2 mph N/A Rain Light Rain
9:15 PM 53.6 °F - 53.6 °F 100% 29.58 in 7.0 mi South 17.3 mph 25.3 mph N/A Rain Rain
9:35 PM 53.6 °F - 53.6 °F 100% 29.57 in 7.0 mi SSW 18.4 mph 25.3 mph N/A Rain Light Rain
9:55 PM 53.6 °F - 53.6 °F 100% 29.56 in 7.0 mi SSW 15.0 mph 23.0 mph N/A Rain Rain
10:15 PM 53.6 °F - 53.6 °F 100% 29.55 in 7.0 mi SSW 16.1 mph 24.2 mph N/A Rain Rain
10:35 PM 53.6 °F - 53.6 °F 100% 29.54 in 7.0 mi SSW 11.5 mph 25.3 mph N/A Rain Rain
10:55 PM 53.6 °F - 53.6 °F 100% 29.54 in 7.0 mi SSW 13.8 mph 23.0 mph N/A Rain Rain
11:15 PM 53.6 °F - 53.6 °F 100% 29.52 in 7.0 mi SSW 13.8 mph 21.9 mph N/A Rain Light Rain
11:35 PM 53.6 °F - 53.6 °F 100% 29.51 in 5.0 mi SSW 13.8 mph 21.9 mph N/A Rain Rain
11:55 PM 53.6 °F - 53.6 °F 100% 29.48 in 4.0 mi SSW 15.0 mph 25.3 mph N/A Rain Rain